Location: Aalen
(48.8330°N, 10.1000°E)
Time: 20:36:00
(UTC+02:00)

S-56A Canister/Altair - Pass Details

Date: 08 August 2021
Orbit: 632 x 2500 km, 38.9° (Epoch: 19 September)

Event Time Altitude Azimuth Distance (km) Brightness Sun altitude
Rises 13:17:23 0° 214° (SW) 4,589 11.9 57.1°
Reaches altitude 10° 13:20:28 10° 205° (SSW) 3,862 11.7 57.1°
Maximum altitude 13:29:38 35° 146° (SE) 2,980 11.7 57.1°
Drops below altitude 10° 13:41:32 10° 89° (E) 5,044 11.8 57.0°
Sets 13:46:11 0° 82° (E) 6,153 12.0 56.9°
